WTB2JB MYNN-MTPP

Flight info

Callsign WTB2JB
Flight time 1h 17m
Altitude 33000
Route BOSAR DCT KNSLY DCT JOSES/N0375F230 A315 SAVAR SAVAR1C
Aircraft B38M/M-SDE1FGHILORVWXY/HB1

Departure

Time 2026-04-20 18:37
Airport Lynden Pindling International Airport (MYNN)

Arrival

Time 2026-04-20 19:55
Airport Toussaint Louverture International Airport (MTPP)
Time Latitude Longitude Altitude Speed Heading
2026-04-20 17:34 25.05053 -77.46843 14 ft 0 kts 348°
2026-04-20 17:57 25.05052 -77.46843 14 ft 0 kts 348°
2026-04-20 18:23 25.05051 -77.46843 14 ft 0 kts 348°
2026-04-20 18:26 25.05035 -77.46839 14 ft 4 kts 343°
2026-04-20 18:26 25.05012 -77.46826 15 ft 4 kts 309°
2026-04-20 18:26 25.05008 -77.46809 16 ft 1 kts 246°
2026-04-20 18:29 25.05008 -77.46810 16 ft 2 kts 246°
2026-04-20 18:29 25.04987 -77.46862 14 ft 13 kts 246°
2026-04-20 18:29 25.04935 -77.46922 15 ft 11 kts 210°
2026-04-20 18:30 25.04906 -77.46994 15 ft 11 kts 298°
2026-04-20 18:30 25.04963 -77.47058 14 ft 13 kts 316°
2026-04-20 18:30 25.05028 -77.47132 14 ft 14 kts 313°
2026-04-20 18:30 25.05103 -77.47210 14 ft 13 kts 320°
2026-04-20 18:31 25.05167 -77.47286 14 ft 14 kts 313°
2026-04-20 18:31 25.05178 -77.47299 15 ft 0 kts 313°
2026-04-20 18:31 25.05179 -77.47300 15 ft 1 kts 313°
2026-04-20 18:31 25.05188 -77.47311 14 ft 3 kts 313°
2026-04-20 18:32 25.05204 -77.47335 16 ft 5 kts 303°
2026-04-20 18:32 25.05220 -77.47375 15 ft 7 kts 284°
2026-04-20 18:32 25.05221 -77.47420 15 ft 0 kts 257°
2026-04-20 18:35 25.05216 -77.47441 15 ft 10 kts 255°
2026-04-20 18:35 25.05182 -77.47521 15 ft 11 kts 224°
2026-04-20 18:35 25.05135 -77.47510 14 ft 4 kts 135°
2026-04-20 18:36 25.05134 -77.47509 14 ft 0 kts 135°
2026-04-20 18:36 25.05135 -77.47509 14 ft 0 kts 135°
2026-04-20 18:37 25.05097 -77.47468 14 ft 35 kts 135°
2026-04-20 18:37 25.04719 -77.47048 18 ft 116 kts 135°
2026-04-20 18:37 25.03995 -77.46254 84 ft 169 kts 134°
2026-04-20 18:37 25.03115 -77.45332 771 ft 177 kts 133°
2026-04-20 18:38 25.02220 -77.44343 1494 ft 189 kts 133°
2026-04-20 18:38 25.01261 -77.43263 1990 ft 210 kts 133°
2026-04-20 18:38 25.00153 -77.42024 2252 ft 240 kts 135°
2026-04-20 18:38 24.98961 -77.40681 2874 ft 254 kts 127°
2026-04-20 18:39 24.97979 -77.39133 3991 ft 249 kts 123°
2026-04-20 18:39 24.96987 -77.37468 4544 ft 270 kts 123°
2026-04-20 18:39 24.95936 -77.35731 5467 ft 273 kts 123°
2026-04-20 18:39 24.94853 -77.33974 6333 ft 281 kts 124°
2026-04-20 18:40 24.93741 -77.32191 7224 ft 283 kts 124°
2026-04-20 18:40 24.92607 -77.30387 8075 ft 289 kts 124°
2026-04-20 18:40 24.91450 -77.28555 8938 ft 294 kts 125°
2026-04-20 18:40 24.90271 -77.26693 9778 ft 299 kts 125°
2026-04-20 18:41 24.89064 -77.24791 10433 ft 310 kts 125°
2026-04-20 18:41 24.87790 -77.22783 10871 ft 328 kts 125°
2026-04-20 18:41 24.86455 -77.20680 11382 ft 341 kts 126°
2026-04-20 18:41 24.85083 -77.18522 12133 ft 345 kts 126°
2026-04-20 18:42 24.83698 -77.16343 12854 ft 351 kts 126°
2026-04-20 18:42 24.82288 -77.14126 13596 ft 356 kts 126°
2026-04-20 18:42 24.80859 -77.11880 14280 ft 361 kts 127°
2026-04-20 18:42 24.79408 -77.09600 14965 ft 365 kts 127°
2026-04-20 18:43 24.77945 -77.07303 15639 ft 369 kts 127°
2026-04-20 18:43 24.76464 -77.04978 16295 ft 373 kts 127°
2026-04-20 18:43 24.74965 -77.02626 16944 ft 377 kts 127°
2026-04-20 18:43 24.73469 -77.00281 17549 ft 382 kts 127°
2026-04-20 18:44 24.71935 -76.97878 18184 ft 386 kts 127°
2026-04-20 18:44 24.70388 -76.95453 18744 ft 389 kts 127°
2026-04-20 18:44 24.68820 -76.93002 19261 ft 394 kts 127°
2026-04-20 18:44 24.67239 -76.90526 19778 ft 398 kts 127°
2026-04-20 18:45 24.65640 -76.88023 20288 ft 402 kts 127°
2026-04-20 18:45 24.63994 -76.85529 20781 ft 404 kts 134°
2026-04-20 18:45 24.61919 -76.83472 21301 ft 403 kts 144°
2026-04-20 18:45 24.59727 -76.81479 21502 ft 416 kts 143°
2026-04-20 18:46 24.57459 -76.79425 21703 ft 428 kts 144°
2026-04-20 18:46 24.55145 -76.77347 22211 ft 430 kts 144°
2026-04-20 18:46 24.52816 -76.75263 22648 ft 434 kts 144°
2026-04-20 18:46 24.50461 -76.73158 23102 ft 438 kts 144°
2026-04-20 18:47 24.48088 -76.71041 23543 ft 442 kts 144°
2026-04-20 18:47 24.45691 -76.68902 23921 ft 445 kts 144°
2026-04-20 18:47 24.43278 -76.66751 24314 ft 448 kts 144°
2026-04-20 18:47 24.40848 -76.64585 24686 ft 451 kts 144°
2026-04-20 18:48 24.38405 -76.62410 25080 ft 454 kts 144°
2026-04-20 18:48 24.35945 -76.60220 25457 ft 457 kts 144°
2026-04-20 18:48 24.33469 -76.58017 25820 ft 460 kts 144°
2026-04-20 18:48 24.30974 -76.55798 26194 ft 463 kts 144°
2026-04-20 18:49 24.28465 -76.53568 26555 ft 466 kts 144°
2026-04-20 18:49 24.25939 -76.51324 26913 ft 469 kts 144°
2026-04-20 18:49 24.23402 -76.49072 27263 ft 472 kts 144°
2026-04-20 18:49 24.20844 -76.46802 27610 ft 474 kts 144°
2026-04-20 18:50 24.18275 -76.44523 27956 ft 477 kts 144°
2026-04-20 18:50 24.15687 -76.42229 28294 ft 480 kts 144°
2026-04-20 18:50 24.13085 -76.39924 28633 ft 482 kts 144°
2026-04-20 18:50 24.10475 -76.37613 28959 ft 485 kts 144°
2026-04-20 18:51 24.07844 -76.35285 29279 ft 488 kts 144°
2026-04-20 18:51 24.05196 -76.32943 29599 ft 491 kts 144°
2026-04-20 18:51 24.02533 -76.30588 29916 ft 493 kts 144°
2026-04-20 18:51 23.99854 -76.28221 30210 ft 496 kts 144°
2026-04-20 18:52 23.97164 -76.25846 30470 ft 499 kts 144°
2026-04-20 18:52 23.94457 -76.23457 30728 ft 501 kts 144°
2026-04-20 18:52 23.91734 -76.21055 30985 ft 504 kts 144°
2026-04-20 18:52 23.88999 -76.18644 31241 ft 507 kts 144°
2026-04-20 18:53 23.86250 -76.16222 31490 ft 509 kts 144°
2026-04-20 18:53 23.84424 -76.14614 31657 ft 511 kts 144°
2026-04-20 18:53 23.81649 -76.12171 31918 ft 513 kts 144°
2026-04-20 18:53 23.77956 -76.08922 32261 ft 516 kts 145°
2026-04-20 18:54 23.75156 -76.06461 32560 ft 517 kts 145°
2026-04-20 18:54 23.72355 -76.04000 32877 ft 517 kts 145°
2026-04-20 18:54 23.70461 -76.02337 33052 ft 519 kts 145°
2026-04-20 18:54 23.67649 -75.99868 33088 ft 519 kts 145°
2026-04-20 18:55 23.62041 -75.94950 33070 ft 516 kts 145°
2026-04-20 18:55 23.56439 -75.90042 33069 ft 517 kts 145°
2026-04-20 18:56 23.50831 -75.85136 33068 ft 517 kts 145°
2026-04-20 18:56 23.45225 -75.80236 33070 ft 517 kts 145°
2026-04-20 18:57 23.39613 -75.75336 33058 ft 516 kts 145°
2026-04-20 18:57 23.34013 -75.70453 33069 ft 516 kts 145°
2026-04-20 18:58 23.28405 -75.65567 33064 ft 516 kts 145°
2026-04-20 18:58 23.22800 -75.60690 33065 ft 516 kts 145°
2026-04-20 18:59 23.17194 -75.55817 33069 ft 516 kts 145°
2026-04-20 18:59 23.11582 -75.50945 33066 ft 516 kts 145°
2026-04-20 19:00 23.05975 -75.46082 33038 ft 516 kts 145°
2026-04-20 19:00 23.00363 -75.41220 33070 ft 516 kts 145°
2026-04-20 19:01 22.94762 -75.36374 33059 ft 514 kts 145°
2026-04-20 19:01 22.89166 -75.31536 33066 ft 515 kts 145°
2026-04-20 19:02 22.83603 -75.26733 33055 ft 514 kts 145°
2026-04-20 19:02 22.77999 -75.21899 33060 ft 514 kts 145°
2026-04-20 19:03 22.72397 -75.17072 33047 ft 515 kts 145°
2026-04-20 19:03 22.66793 -75.12249 33062 ft 514 kts 145°
2026-04-20 19:04 22.61191 -75.07432 33058 ft 514 kts 145°
2026-04-20 19:04 22.55594 -75.02625 33059 ft 514 kts 145°
2026-04-20 19:05 22.49949 -74.97782 33052 ft 518 kts 145°
2026-04-20 19:05 22.44287 -74.92930 33053 ft 519 kts 145°
2026-04-20 19:06 22.38625 -74.88083 33370 ft 519 kts 145°
2026-04-20 19:06 22.35793 -74.85661 33702 ft 519 kts 144°
2026-04-20 19:06 22.32961 -74.83239 34043 ft 519 kts 145°
2026-04-20 19:07 22.30133 -74.80822 34335 ft 519 kts 145°
2026-04-20 19:07 22.27298 -74.78402 34619 ft 519 kts 145°
2026-04-20 19:07 22.24472 -74.75989 34891 ft 518 kts 145°
2026-04-20 19:07 22.21644 -74.73576 35055 ft 519 kts 145°
2026-04-20 19:08 22.13175 -74.66359 35056 ft 516 kts 145°
2026-04-20 19:09 22.07531 -74.61555 35049 ft 516 kts 145°
2026-04-20 19:09 22.01895 -74.56763 35035 ft 515 kts 145°
2026-04-20 19:10 21.96259 -74.51977 35041 ft 518 kts 144°
2026-04-20 19:10 21.90591 -74.47167 35044 ft 519 kts 144°
2026-04-20 19:11 21.84921 -74.42362 35048 ft 518 kts 145°
2026-04-20 19:11 21.79256 -74.37565 35042 ft 518 kts 145°
2026-04-20 19:12 21.73592 -74.32774 35040 ft 517 kts 144°
2026-04-20 19:12 21.67940 -74.27998 35034 ft 516 kts 144°
2026-04-20 19:13 21.62298 -74.23237 35038 ft 515 kts 144°
2026-04-20 19:13 21.56656 -74.18479 35036 ft 515 kts 144°
2026-04-20 19:14 21.51012 -74.13725 35037 ft 515 kts 144°
2026-04-20 19:14 21.45370 -74.08977 35037 ft 516 kts 144°
2026-04-20 19:15 21.39722 -74.04229 35031 ft 516 kts 144°
2026-04-20 19:15 21.34074 -73.99485 35023 ft 515 kts 144°
2026-04-20 19:16 21.28475 -73.94787 35030 ft 514 kts 144°
2026-04-20 19:16 21.22840 -73.90064 35026 ft 514 kts 144°
2026-04-20 19:17 21.17204 -73.85344 35028 ft 514 kts 144°
2026-04-20 19:17 21.11567 -73.80627 35027 ft 514 kts 144°
2026-04-20 19:18 21.05929 -73.75915 35025 ft 514 kts 144°
2026-04-20 19:18 21.00288 -73.71205 35025 ft 514 kts 144°
2026-04-20 19:19 20.94489 -73.66785 35018 ft 508 kts 156°
2026-04-20 19:19 20.88214 -73.63275 35011 ft 509 kts 155°
2026-04-20 19:20 20.81942 -73.59730 35019 ft 510 kts 155°
2026-04-20 19:20 20.75670 -73.56192 35021 ft 510 kts 155°
2026-04-20 19:21 20.69400 -73.52659 35014 ft 510 kts 155°
2026-04-20 19:21 20.63125 -73.49126 35016 ft 510 kts 155°
2026-04-20 19:22 20.56848 -73.45595 35012 ft 510 kts 155°
2026-04-20 19:22 20.50571 -73.42068 35016 ft 510 kts 155°
2026-04-20 19:23 20.44301 -73.38548 35016 ft 510 kts 155°
2026-04-20 19:23 20.38024 -73.35027 35016 ft 509 kts 155°
2026-04-20 19:24 20.31751 -73.31512 35004 ft 510 kts 155°
2026-04-20 19:24 20.25486 -73.28004 35014 ft 505 kts 155°
2026-04-20 19:25 20.19290 -73.24538 35011 ft 502 kts 155°
2026-04-20 19:25 20.13143 -73.21105 35013 ft 502 kts 155°
2026-04-20 19:26 20.06957 -73.17655 35012 ft 502 kts 155°
2026-04-20 19:26 20.00765 -73.14206 35010 ft 502 kts 155°
2026-04-20 19:27 19.94586 -73.10766 34830 ft 498 kts 155°
2026-04-20 19:27 19.91503 -73.09050 33810 ft 505 kts 155°
2026-04-20 19:27 19.88355 -73.07283 32521 ft 517 kts 154°
2026-04-20 19:27 19.85183 -73.05500 31929 ft 513 kts 155°
2026-04-20 19:28 19.82044 -73.03737 31358 ft 509 kts 155°
2026-04-20 19:28 19.78924 -73.01987 30741 ft 506 kts 155°
2026-04-20 19:28 19.75860 -73.00171 30219 ft 503 kts 153°
2026-04-20 19:28 19.72831 -72.98335 29628 ft 499 kts 153°
2026-04-20 19:29 19.69827 -72.96527 29040 ft 495 kts 153°
2026-04-20 19:29 19.66846 -72.94738 28484 ft 490 kts 153°
2026-04-20 19:29 19.63887 -72.92962 27947 ft 485 kts 152°
2026-04-20 19:29 19.60965 -72.91210 27447 ft 480 kts 152°
2026-04-20 19:30 19.58068 -72.89474 26960 ft 476 kts 152°
2026-04-20 19:30 19.55203 -72.87757 26486 ft 471 kts 152°
2026-04-20 19:30 19.52366 -72.86057 26016 ft 466 kts 152°
2026-04-20 19:30 19.49551 -72.84372 25562 ft 462 kts 152°
2026-04-20 19:31 19.46768 -72.82706 25113 ft 457 kts 152°
2026-04-20 19:31 19.44006 -72.81054 24673 ft 453 kts 152°
2026-04-20 19:31 19.41275 -72.79419 24247 ft 449 kts 152°
2026-04-20 19:31 19.38569 -72.77802 23826 ft 445 kts 152°
2026-04-20 19:32 19.35885 -72.76199 23379 ft 441 kts 152°
2026-04-20 19:32 19.33224 -72.74610 22900 ft 437 kts 152°
2026-04-20 19:32 19.30590 -72.73038 22426 ft 433 kts 152°
2026-04-20 19:32 19.27979 -72.71478 21967 ft 429 kts 151°
2026-04-20 19:33 19.25394 -72.69936 21549 ft 424 kts 151°
2026-04-20 19:33 19.22840 -72.68413 21128 ft 420 kts 151°
2026-04-20 19:33 19.20299 -72.66898 20694 ft 417 kts 151°
2026-04-20 19:33 19.17788 -72.65402 20277 ft 413 kts 151°
2026-04-20 19:34 19.15291 -72.63914 19860 ft 410 kts 151°
2026-04-20 19:34 19.12815 -72.62439 19457 ft 407 kts 151°
2026-04-20 19:34 19.10353 -72.60976 19054 ft 404 kts 152°
2026-04-20 19:34 19.07794 -72.59779 18648 ft 401 kts 159°
2026-04-20 19:35 19.05191 -72.58711 18211 ft 400 kts 159°
2026-04-20 19:35 19.02609 -72.57663 17808 ft 396 kts 159°
2026-04-20 19:35 19.00039 -72.56621 17333 ft 394 kts 159°
2026-04-20 19:35 18.97479 -72.55581 16867 ft 393 kts 159°
2026-04-20 19:36 18.94933 -72.54546 16404 ft 392 kts 159°
2026-04-20 19:36 18.93248 -72.53860 16146 ft 390 kts 159°
2026-04-20 19:36 18.90735 -72.52839 15841 ft 383 kts 159°
2026-04-20 19:36 18.88264 -72.51836 15446 ft 381 kts 159°
2026-04-20 19:37 18.85804 -72.50832 15108 ft 376 kts 157°
2026-04-20 19:37 18.83586 -72.49402 14653 ft 375 kts 138°
2026-04-20 19:37 18.81973 -72.47272 14299 ft 371 kts 118°
2026-04-20 19:37 18.81150 -72.44711 13912 ft 367 kts 97°
2026-04-20 19:38 18.81171 -72.42043 13454 ft 364 kts 81°
2026-04-20 19:38 18.81577 -72.39411 13008 ft 362 kts 79°
2026-04-20 19:38 18.82015 -72.36808 12626 ft 359 kts 79°
2026-04-20 19:38 18.82445 -72.34221 12199 ft 357 kts 79°
2026-04-20 19:39 18.82872 -72.31668 11948 ft 349 kts 79°
2026-04-20 19:39 18.83294 -72.29178 11776 ft 340 kts 79°
2026-04-20 19:39 18.83695 -72.26761 11567 ft 327 kts 79°
2026-04-20 19:39 18.84087 -72.24442 11251 ft 315 kts 79°
2026-04-20 19:40 18.84463 -72.22203 10904 ft 305 kts 79°
2026-04-20 19:40 18.84817 -72.20034 10585 ft 295 kts 82°
2026-04-20 19:40 18.84680 -72.17931 10284 ft 284 kts 108°
2026-04-20 19:40 18.83713 -72.16178 10115 ft 274 kts 134°
2026-04-20 19:41 18.82139 -72.15074 9746 ft 274 kts 160°
2026-04-20 19:41 18.80303 -72.14589 9395 ft 272 kts 168°
2026-04-20 19:41 18.78449 -72.14212 9083 ft 270 kts 169°
2026-04-20 19:41 18.76590 -72.14061 8705 ft 269 kts 189°
2026-04-20 19:42 18.74882 -72.14773 8393 ft 266 kts 217°
2026-04-20 19:42 18.73694 -72.16228 8075 ft 264 kts 245°
2026-04-20 19:42 18.73182 -72.18053 8042 ft 259 kts 258°
2026-04-20 19:42 18.72831 -72.19940 8049 ft 265 kts 259°
2026-04-20 19:43 18.72600 -72.21204 8027 ft 265 kts 259°
2026-04-20 19:43 18.71941 -72.23728 7982 ft 269 kts 240°
2026-04-20 19:43 18.70738 -72.25200 7756 ft 263 kts 214°
2026-04-20 19:43 18.69101 -72.25923 7675 ft 254 kts 187°
2026-04-20 19:44 18.67333 -72.25773 7631 ft 263 kts 161°
2026-04-20 19:44 18.65759 -72.24788 7583 ft 267 kts 134°
2026-04-20 19:44 18.64800 -72.23164 7452 ft 258 kts 107°
2026-04-20 19:44 18.64636 -72.21303 6973 ft 258 kts 81°
2026-04-20 19:45 18.65254 -72.19544 6610 ft 258 kts 56°
2026-04-20 19:45 18.66525 -72.18236 6346 ft 256 kts 35°
2026-04-20 19:45 18.67827 -72.16963 6227 ft 259 kts 61°
2026-04-20 19:45 18.68213 -72.15144 6148 ft 258 kts 99°
2026-04-20 19:46 18.67450 -72.13475 6082 ft 257 kts 135°
2026-04-20 19:46 18.66041 -72.12298 6054 ft 262 kts 150°
2026-04-20 19:46 18.64476 -72.11316 6040 ft 257 kts 142°
2026-04-20 19:46 18.63436 -72.09896 5971 ft 238 kts 110°
2026-04-20 19:47 18.63126 -72.08242 5948 ft 224 kts 97°
2026-04-20 19:47 18.62804 -72.06692 5949 ft 214 kts 108°
2026-04-20 19:47 18.62347 -72.05187 5889 ft 214 kts 108°
2026-04-20 19:47 18.61906 -72.03714 5956 ft 208 kts 108°
2026-04-20 19:48 18.61479 -72.02268 5959 ft 206 kts 108°
2026-04-20 19:48 18.61032 -72.00837 5920 ft 205 kts 116°
2026-04-20 19:48 18.60103 -71.99742 5739 ft 202 kts 151°
2026-04-20 19:48 18.58772 -71.99328 5504 ft 202 kts 183°
2026-04-20 19:49 18.57465 -71.99798 5239 ft 202 kts 218°
2026-04-20 19:49 18.56597 -72.00948 4951 ft 203 kts 242°
2026-04-20 19:49 18.56208 -72.02370 4680 ft 204 kts 269°
2026-04-20 19:49 18.56391 -72.03842 4421 ft 204 kts 283°
2026-04-20 19:50 18.56725 -72.05298 4133 ft 205 kts 284°
2026-04-20 19:50 18.57088 -72.06751 3886 ft 206 kts 285°
2026-04-20 19:50 18.57474 -72.08213 3610 ft 208 kts 285°
2026-04-20 19:50 18.57871 -72.09666 3363 ft 205 kts 286°
2026-04-20 19:51 18.58263 -72.11080 3079 ft 196 kts 286°
2026-04-20 19:51 18.58640 -72.12431 2725 ft 187 kts 285°
2026-04-20 19:51 18.58758 -72.13748 2416 ft 176 kts 267°
2026-04-20 19:51 18.58701 -72.15015 2289 ft 170 kts 267°
2026-04-20 19:52 18.58655 -72.16200 2235 ft 157 kts 267°
2026-04-20 19:52 18.58600 -72.17337 2133 ft 154 kts 266°
2026-04-20 19:52 18.58544 -72.18451 1971 ft 154 kts 266°
2026-04-20 19:52 18.58491 -72.19589 1711 ft 154 kts 267°
2026-04-20 19:53 18.58435 -72.20739 1421 ft 159 kts 266°
2026-04-20 19:53 18.58374 -72.21909 1218 ft 159 kts 266°
2026-04-20 19:53 18.58320 -72.23058 962 ft 154 kts 267°
2026-04-20 19:53 18.58261 -72.24144 785 ft 149 kts 266°
2026-04-20 19:54 18.58200 -72.25220 647 ft 146 kts 269°
2026-04-20 19:54 18.58148 -72.26295 434 ft 148 kts 268°
2026-04-20 19:54 18.58095 -72.27353 245 ft 140 kts 270°
2026-04-20 19:54 18.58050 -72.28317 114 ft 112 kts 268°
2026-04-20 19:55 18.58020 -72.28983 105 ft 83 kts 267°
2026-04-20 19:55 18.58000 -72.29357 101 ft 29 kts 267°
2026-04-20 19:55 18.57919 -72.29468 97 ft 18 kts 178°
2026-04-20 19:55 18.57787 -72.29460 98 ft 17 kts 176°
2026-04-20 19:56 18.57697 -72.29468 98 ft 12 kts 222°
2026-04-20 19:56 18.57677 -72.29540 98 ft 8 kts 250°
2026-04-20 19:56 18.57650 -72.29564 96 ft 1 kts 177°
2026-04-20 19:56 18.57641 -72.29561 98 ft 2 kts 159°
2026-04-20 19:57 18.57627 -72.29557 96 ft 0 kts 180°
2026-04-20 19:57 18.57624 -72.29557 96 ft 0 kts 181°
2026-04-20 19:59 18.57619 -72.29558 96 ft 4 kts 181°
2026-04-20 19:59 18.57618 -72.29558 96 ft 0 kts 181°